User: anonymous   Login
Location: Newark
(45.5167°N, 11.1667°E)
Time: 00:04:37
(UTC+00:00)
Language:

Transit 4A - Orbit

View from above orbital plane
View from above orbital plane
View from above satellite
View from above satellite

Ground track
Ground track

The orbit data is extracted from the following two-line orbital elements,

1   116U 61015A   19342.46004877 -.00000055  00000-0  17060-4 0  9995
2   116  66.8100 317.5511 0071985 147.8574 212.6925 13.91761830965590
Epoch (UTC): 08 December 2019 11:02:28
Eccentricity: 0.0071985
inclination: 66.8100°
perigee height: 870 km
apogee height: 975 km
right ascension of ascending node: 317.5511°
argument of perigee: 147.8574°
revolutions per day: 13.91761830
mean anomaly at epoch: 212.6925°
orbit number at epoch: 96559

The dashed part of the orbit path shows where the satellite is in the earth's shadow,  

DLR